Retour au catalogue

ARIANE 5 R/B

ActifGTO
NORAD 28904·ROCKET BODY·🇫🇷 France

Lancé Nov 16, 2005 depuis Guiana Space Centre

Loading…

TLE

VieillissantSource: Space-Track

Époque: Sep 14, 2026, 12:59 UTC

1 28904U 05046C   26257.54142035 -.00000043  00000-0  23495-3 0  9998
2 28904   7.3318  67.1755 7189512  47.4052 354.2038  2.30001349174338

Suivez ARIANE 5 R/B en temps réel avec AllMySat

Download on the App Store